Location: ????
(30.2663°N, 31.2484°E)
Time: 18:31:36
(UTC+00:00)

Meteor 1-22 - Visible Passes

Search period start: 22 April 2024 00:00
Search period end: 02 May 2024 00:00
Orbit: 795 x 905 km, 81.3° (Epoch: 22 April)

Date Brightness Start Highest point End Pass type
(mag) Time Alt. Az. Time Alt. Az. Time Alt. Az.
22 Apr 7.6 21:39:39 10° N 21:39:48 11° N 21:39:48 11° N visible
23 Apr 7.5 21:27:34 10° N 21:27:57 12° N 21:27:57 12° N visible
24 Apr 7.4 21:15:30 10° N 21:16:06 13° N 21:16:06 13° N visible
25 Apr 7.3 21:03:26 10° N 21:04:16 15° N 21:04:16 15° N visible
26 Apr 7.2 20:51:22 10° N 20:52:27 16° N 20:52:27 16° N visible
27 Apr 7.1 20:39:18 10° N 20:40:38 18° N 20:40:38 18° N visible
28 Apr 7.0 20:27:16 10° N 20:28:50 19° N 20:28:50 19° N visible
29 Apr 6.8 20:15:14 10° N 20:17:03 21° N 20:17:03 21° N visible
30 Apr 6.7 20:03:13 10° N 20:05:17 22° NNE 20:05:17 22° NNE visible
01 May 6.5 19:51:11 10° N 19:53:31 24° NNE 19:53:31 24° NNE visible
01 May 7.5 21:35:27 10° NW 21:35:32 10° NW 21:35:32 10° NW visible
